紫金山第2彗星

60P/Tsuchinshan 2 (2018)

English version
Home page
Updated on September 17, 2019

---------------------------------------------------------------------

・ プロフィール

・ 写真集

・ 軌道要素

Epoch 2018 Dec. 28.0 TT = JDT 2458480.5
T 2018 Dec. 11.23136 TT                                 Kobayashi
q   1.6226475            (2000.0)            P               Q
n   0.14986353     Peri.  216.55283     -0.55998588     -0.82611496
a   3.5102556      Node   267.58352     +0.77426041     -0.49481952
e   0.5377409      Incl.    3.60652     +0.29485018     -0.26960659
P   6.58
From 350 observations 1978 Dec. 1-2012 May 28, mean residual 0".8.
     Nongravitational parameters A1 = -0.03, A2 = +0.0005.

・ 星図

・ 光度変化

        m1 = 8.3 + 5 logΔ + 25 log r(t - 35)

---------------------------------------------------------------------

軌道要素はM.P.E.C. 2015-M77に掲載されたものです。
星図はステラナビゲータ Ver.10 (アストロアーツ) で作成したものです。
光度グラフはComet for Windowsで作成したものです。

---------------------------------------------------------------------

Copyright(C) Seiichi Yoshida (comet@aerith.net). All rights reserved.